• In France
  • List of Countries
  • For 7 days
  • Water Temperature
  • Satellite Maps
  • Weather Map
  • Weather Widgets
  • user-avatar
    Login

    Hourly Weather Zinder

    Today, 20 September, Thursday

    Time Temperature Precipitation Wind Pressure Humidity
    00:00 +35°C° 0 mm 2 mps 718 mmHg 26%
    01:00 +34°C° 0 mm 2 mps 718 mmHg 28%
    02:00 +32°C° 0 mm 1 mps 717 mmHg 30%
    03:00 +32°C° 0 mm 1 mps 717 mmHg 32%
    04:00 +31°C° 0 mm 1 mps 717 mmHg 34%
    05:00 +31°C° 0 mm 1 mps 717 mmHg 35%
    06:00 +31°C° 0 mm 2 mps 717 mmHg 36%
    07:00 +31°C° 0 mm 2 mps 718 mmHg 38%
    08:00 +34°C° 0 mm 2 mps 718 mmHg 36%
    09:00 +35°C° 0 mm 3 mps 719 mmHg 34%
    10:00 +36°C° 0 mm 3 mps 719 mmHg 32%
    11:00 +38°C° 0 mm 2 mps 719 mmHg 28%
    12:00 +39°C° 0 mm 2 mps 718 mmHg 24%
    13:00 +40°C° 0 mm 2 mps 718 mmHg 20%
    14:00 +41°C° 0 mm 2 mps 717 mmHg 19%
    15:00 +42°C° 0 mm 3 mps 716 mmHg 18%
    16:00 +42°C° 0 mm 3 mps 716 mmHg 18%
    17:00 +42°C° 0 mm 3 mps 716 mmHg 18%
    18:00 +40°C° 0 mm 2 mps 716 mmHg 19%
    19:00 +40°C° 0 mm 2 mps 716 mmHg 20%
    20:00 +39°C° 0 mm 2 mps 716 mmHg 21%
    21:00 +38°C° 0 mm 2 mps 717 mmHg 22%
    22:00 +37°C° 0 mm 1 mps 717 mmHg 23%
    23:00 +36°C° 0 mm 1 mps 717 mmHg 25%

    Tomorrow, 21 September, Friday

    Time Temperature Precipitation Wind Pressure Humidity
    00:00 +35°C° 0 mm 1 mps 717 mmHg 26%
    01:00 +35°C° 0 mm 1 mps 716 mmHg 28%
    02:00 +35°C° 0 mm 2 mps 716 mmHg 29%
    03:00 +35°C° 0 mm 2 mps 716 mmHg 30%
    04:00 +34°C° 0 mm 3 mps 715 mmHg 32%
    05:00 +34°C° 0 mm 3 mps 716 mmHg 34%
    06:00 +33°C° 0 mm 4 mps 716 mmHg 37%
    07:00 +33°C° 0 mm 4 mps 716 mmHg 39%
    08:00 +35°C° 0 mm 4 mps 717 mmHg 36%
    09:00 +36°C° 0 mm 3 mps 718 mmHg 33%
    10:00 +38°C° 0 mm 3 mps 718 mmHg 30%
    11:00 +39°C° 0 mm 3 mps 718 mmHg 25%
    12:00 +42°C° 0 mm 3 mps 717 mmHg 20%
    13:00 +42°C° 0 mm 2 mps 717 mmHg 15%
    14:00 +42°C° 0 mm 2 mps 716 mmHg 15%
    15:00 +42°C° 0 mm 2 mps 715 mmHg 15%
    16:00 +42°C° 0 mm 2 mps 715 mmHg 14%
    17:00 +41°C° 0 mm 2 mps 715 mmHg 15%
    18:00 +40°C° 0 mm 1 mps 715 mmHg 16%
    19:00 +40°C° 0 mm 1 mps 715 mmHg 17%
    20:00 +39°C° 0 mm 2 mps 716 mmHg 18%
    21:00 +39°C° 0 mm 3 mps 716 mmHg 18%
    22:00 +38°C° 0 mm 4 mps 716 mmHg 19%
    23:00 +37°C° 0 mm 4 mps 716 mmHg 21%

    Day after tomorrow, 22 September, Saturday

    Time Temperature Precipitation Wind Pressure Humidity
    00:00 +36°C° 0 mm 3 mps 716 mmHg 22%
    01:00 +36°C° 0 mm 2 mps 716 mmHg 24%
    02:00 +35°C° 0 mm 2 mps 716 mmHg 28%
    03:00 +34°C° 0 mm 3 mps 716 mmHg 32%
    04:00 +34°C° 0 mm 3 mps 715 mmHg 35%
    05:00 +33°C° 0 mm 3 mps 716 mmHg 39%
    06:00 +33°C° 0 mm 3 mps 716 mmHg 42%
    07:00 +31°C° 0 mm 3 mps 717 mmHg 46%
    08:00 +34°C° 0 mm 3 mps 717 mmHg 43%
    09:00 +35°C° 0 mm 4 mps 718 mmHg 41%
    10:00 +36°C° 0 mm 4 mps 719 mmHg 38%
    11:00 +37°C° 0 mm 4 mps 718 mmHg 34%
    12:00 +38°C° 0 mm 4 mps 718 mmHg 30%
    13:00 +40°C° 0 mm 4 mps 717 mmHg 26%
    14:00 +40°C° 0 mm 3 mps 717 mmHg 24%
    15:00 +40°C° 0 mm 2 mps 716 mmHg 22%
    16:00 +41°C° 0 mm 2 mps 716 mmHg 20%
    17:00 +40°C° 0 mm 2 mps 716 mmHg 20%
    18:00 +40°C° 0 mm 2 mps 716 mmHg 21%
    19:00 +39°C° 0 mm 2 mps 716 mmHg 22%
    20:00 +38°C° 0 mm 3 mps 716 mmHg 24%
    21:00 +38°C° 0 mm 3 mps 716 mmHg 26%
    22:00 +37°C° 0 mm 4 mps 716 mmHg 28%
    23:00 +36°C° 0 mm 4 mps 716 mmHg 32%

    23 September, Sunday

    Time Temperature Precipitation Wind Pressure Humidity
    00:00 +35°C° 0 mm 4 mps 716 mmHg 35%
    01:00 +35°C° 0 mm 4 mps 716 mmHg 38%
    02:00 +34°C° 0 mm 4 mps 716 mmHg 42%
    03:00 +33°C° 0 mm 4 mps 715 mmHg 46%
    04:00 +33°C° 0 mm 5 mps 715 mmHg 50%
    05:00 +32°C° 0 mm 5 mps 716 mmHg 53%
    06:00 +32°C° 0 mm 5 mps 716 mmHg 55%
    07:00 +32°C° 0 mm 5 mps 717 mmHg 57%
    08:00 +33°C° 0 mm 5 mps 717 mmHg 55%
    09:00 +34°C° 0 mm 5 mps 718 mmHg 52%
    10:00 +35°C° 0 mm 5 mps 718 mmHg 50%
    11:00 +36°C° 0 mm 4 mps 718 mmHg 44%
    12:00 +37°C° 0 mm 4 mps 718 mmHg 39%
    13:00 +38°C° 0 mm 4 mps 717 mmHg 34%
    14:00 +39°C° 0 mm 3 mps 717 mmHg 31%
    15:00 +39°C° 0 mm 3 mps 716 mmHg 27%
    16:00 +40°C° 0 mm 2 mps 716 mmHg 24%
    17:00 +39°C° 0 mm 2 mps 716 mmHg 25%
    18:00 +39°C° 0 mm 2 mps 716 mmHg 27%
    19:00 +38°C° 0 mm 2 mps 716 mmHg 28%
    20:00 +37°C° 0 mm 2 mps 717 mmHg 30%
    21:00 +37°C° 0 mm 2 mps 717 mmHg 32%
    22:00 +36°C° 0 mm 3 mps 717 mmHg 34%
    23:00 +35°C° 0 mm 3 mps 717 mmHg 39%

    24 September, Monday

    Time Temperature Precipitation Wind Pressure Humidity
    00:00 +34°C° 0 mm 4 mps 717 mmHg 45%
    01:00 +34°C° 0 mm 4 mps 717 mmHg 51%
    02:00 +33°C° 0 mm 4 mps 716 mmHg 55%
    03:00 +31°C° 0 mm 3 mps 716 mmHg 59%
    04:00 +31°C° 0 mm 3 mps 716 mmHg 63%
    05:00 +30°C° 0 mm 3 mps 717 mmHg 65%
    06:00 +30°C° 0 mm 3 mps 717 mmHg 66%
    07:00 +30°C° 0 mm 3 mps 718 mmHg 67%
    08:00 +31°C° 0 mm 3 mps 718 mmHg 61%
    09:00 +34°C° 0 mm 4 mps 719 mmHg 56%
    10:00 +35°C° 0 mm 4 mps 719 mmHg 50%
    11:00 +36°C° 0 mm 3 mps 719 mmHg 44%
    12:00 +38°C° 0 mm 2 mps 718 mmHg 38%
    13:00 +39°C° 0 mm 1 mps 717 mmHg 32%
    14:00 +40°C° 0 mm 1 mps 717 mmHg 29%
    15:00 +40°C° 0 mm 1 mps 716 mmHg 27%
    16:00 +41°C° 0 mm 2 mps 716 mmHg 24%
    17:00 +40°C° 0 mm 2 mps 716 mmHg 25%
    18:00 +40°C° 0 mm 2 mps 716 mmHg 25%
    19:00 +39°C° 0 mm 2 mps 717 mmHg 26%
    20:00 +39°C° 0 mm 2 mps 717 mmHg 28%
    21:00 +38°C° 0 mm 2 mps 717 mmHg 30%
    22:00 +37°C° 0 mm 2 mps 717 mmHg 33%
    23:00 +36°C° 0.1 mm 3 mps 717 mmHg 37%

    25 September, Tuesday

    Time Temperature Precipitation Wind Pressure Humidity
    00:00 +35°C° 0.1 mm 5 mps 717 mmHg 41%
    01:00 +34°C° 0.1 mm 6 mps 717 mmHg 45%
    02:00 +33°C° 0 mm 6 mps 717 mmHg 49%
    03:00 +32°C° 0 mm 5 mps 717 mmHg 53%
    04:00 +32°C° 0 mm 5 mps 717 mmHg 57%
    05:00 +32°C° 0 mm 5 mps 717 mmHg 58%
    06:00 +30°C° 0 mm 5 mps 718 mmHg 60%
    07:00 +30°C° 0 mm 5 mps 718 mmHg 62%
    08:00 +32°C° 0 mm 5 mps 719 mmHg 56%
    09:00 +34°C° 0 mm 5 mps 719 mmHg 51%
    10:00 +35°C° 0 mm 5 mps 719 mmHg 46%
    11:00 +37°C° 0 mm 4 mps 719 mmHg 41%
    12:00 +38°C° 0 mm 4 mps 718 mmHg 36%
    13:00 +40°C° 0 mm 4 mps 717 mmHg 32%
    14:00 +40°C° 0 mm 3 mps 717 mmHg 29%
    15:00 +40°C° 0 mm 3 mps 716 mmHg 27%
    16:00 +42°C° 0 mm 3 mps 716 mmHg 24%
    17:00 +40°C° 0 mm 2 mps 716 mmHg 25%
    18:00 +40°C° 0 mm 2 mps 716 mmHg 26%
    19:00 +39°C° 0 mm 1 mps 716 mmHg 26%
    20:00 +39°C° 0.1 mm 2 mps 716 mmHg 28%
    21:00 +38°C° 0.1 mm 2 mps 717 mmHg 29%
    22:00 +37°C° 0.1 mm 2 mps 717 mmHg 31%
    23:00 +36°C° 0 mm 2 mps 717 mmHg 33%
    Show more